Location: Trebic
(49.2170°N, 15.8830°E)
Time: 23:43:17
(UTC+01:00)

Transit 4A - Pass Details

Date: 03 November 2020
Orbit: 862 x 982 km, 66.8° (Epoch: 28 November)

Event Time Altitude Azimuth Distance (km) Brightness Sun altitude
Rises 17:16:38 0° 287° (WNW) 3,665 12.1 -7.8°
Reaches altitude 10° 17:20:11 10° 307° (NW) 2,732 10.9 -8.4°
Maximum altitude 17:24:19 18° 348° (NNW) 2,241 9.9 -9.0°
Drops below altitude 10° 17:28:29 10° 28° (NNE) 2,745 10.0 -9.7°
Enters shadow 17:30:28 - 40° (NE) 3,232 10.3 -10.0°
